User: anonymous   Login
Location: Lourdes
(43.1000°N, 0.0500°W)
Time: 14:48:02
(UTC+00:00)
Language:

Cosmos 1151 Rocket - Orbit

View from above orbital plane
View from above orbital plane
View from above satellite
View from above satellite

Ground track
Ground track

The orbit data is extracted from the following two-line orbital elements,

1 11672U 80005B   21129.20348014  .00000093  00000-0  74903-5 0  9997
2 11672  82.5159 177.0156 0015129 276.5072  83.4422 14.88044650234858
Epoch (UTC): 09 May 2021 04:53:00
Eccentricity: 0.0015129
inclination: 82.5159°
perigee height: 593 km
apogee height: 614 km
right ascension of ascending node: 177.0156°
argument of perigee: 276.5072°
revolutions per day: 14.88044650
mean anomaly at epoch: 83.4422°
orbit number at epoch: 23485

The dashed part of the orbit path shows where the satellite is in the earth's shadow,  

DLR